Location: Newark
(49.2191°N, 12.6671°E)
Time: 13:20:48
(UTC+00:00)

Courier 1B - All Passes

Search period start: 20 January 2020 00:00
Search period end: 30 January 2020 00:00
Orbit: 962 x 1209 km, 28.3° (Epoch: 19 January)

Date Brightness Start Highest point End Pass type
(mag) Time Alt. Az. Time Alt. Az. Time Alt. Az.
20 Jan - 04:11:40 10° S 04:14:09 12° SSE 04:16:39 10° SSE visible
20 Jan - 06:02:50 10° SSW 06:06:52 15° S 06:10:55 10° SSE visible
20 Jan - 07:57:45 10° SSW 07:59:34 11° SSW 08:01:23 10° S daylight
21 Jan - 05:09:22 10° SSW 05:13:19 15° S 05:17:17 10° SE visible
21 Jan - 07:03:00 10° SW 07:06:04 13° SSW 07:09:07 10° S daylight
22 Jan - 04:16:11 10° SSW 04:19:47 14° S 04:23:25 10° SE visible
22 Jan - 06:08:55 10° SW 06:12:32 14° S 06:16:10 10° SSE visible
23 Jan - 03:23:20 10° S 03:26:16 13° SSE 03:29:14 10° SE visible
23 Jan - 05:15:08 10° SW 05:18:59 14° S 05:22:52 10° SSE visible
24 Jan - 02:31:17 10° S 02:32:47 11° SSE 02:34:19 10° SSE visible
24 Jan - 04:21:37 10° SSW 04:25:27 15° S 04:29:20 10° SSE visible
24 Jan - 06:16:01 10° SSW 06:18:10 11° SSW 06:20:19 10° S visible
25 Jan - 03:28:22 10° SSW 03:31:55 14° S 03:35:33 10° SSE visible
25 Jan - 05:21:38 10° SW 05:24:39 13° S 05:27:42 10° SSE visible
26 Jan - 02:35:24 10° SSW 02:38:26 13° S 02:41:31 10° SE visible
26 Jan - 04:27:44 10° SSW 04:31:08 13° S 04:34:34 10° SSE visible
27 Jan - 01:42:58 10° S 01:44:58 11° SSE 01:47:00 10° SSE visible
27 Jan - 03:34:09 10° SSW 03:37:37 14° S 03:41:09 10° SSE visible
28 Jan - 02:40:49 10° SSW 02:44:07 14° S 02:47:30 10° SSE visible
28 Jan - 04:34:58 10° SSW 04:36:47 11° SSW 04:38:39 10° S visible
29 Jan - 01:47:46 10° SSW 01:50:39 13° S 01:53:36 10° SSE visible
29 Jan - 03:40:43 10° SSW 03:43:19 12° S 03:45:56 10° SSE visible
